Regional Weather Roundup
Issued by NWS

Home | Current Version | Previous Version | Graphics & Text | Print | Product List | Glossary On
Versions: 1 2 3 4 5 6 7 8 9 10 11 12 13 14 15 16 17 18 19 20 21 22 23 24 25 26 27 28 29 30 31 32 33 34 35 36 37 38 39 40 41 42 43 44 45 46 47 48
000
ASUS45 KTFX 080910
RWRMT
MONTANA REGIONAL WEATHER ROUNDUP
NATIONAL WEATHER SERVICE GREAT FALLS MT
200 AM MST MON FEB 08 2016

NOTE: "FAIR" INDICATES FEW OR NO CLOUDS BELOW 12000 FEET WITH NO
SIGNIFICANT WEATHER AND/OR OBSTRUCTIONS TO VISIBILITY.

MTZ001>007-043-081000-
WEST OF THE DIVIDE

CITY           SKY/WX    TMP DP  RH WIND       PRES   REMARKS
KALISPELL      CLOUDY    30  27  88 CALM      30.59F
MISSOULA       CLOUDY    33  25  72 CALM      30.62S
BUTTE          CLOUDY    29  18  63 NW3       30.56S
MULLAN PASS    PTCLDY    28  24  85 NW6       30.54S WCI  22
ANACONDA         N/A     32  19  59 CALM      30.57R
DEER LODGE       N/A     34  25  69 E3        30.58F
HAMILTON         N/A     30  25  80 CALM      30.59S
LIBBY            N/A     28  25  86 CALM      30.64S
PLAINS           N/A     28  22  78 CALM      30.58S
THOMPSON FALLS   N/A     27  24  88 CALM      30.64S
$$

MTZ008-052>055-081000-
SOUTHWEST MONTANA

CITY           SKY/WX    TMP DP  RH WIND       PRES   REMARKS
BOZEMAN        CLOUDY    30  25  81 SE5       30.53F
DILLON         CLOUDY    24  15  68 CALM      30.54S
ENNIS          CLEAR     27  19  74 N8        30.60R WCI  18
TWIN BRIDGES     N/A     26  16  66 E6        30.47F WCI  19
$$

MTZ009-010-012-014-046-048-049-054-081000-
EAST SLOPES AND CENTRAL MONTANA

CITY           SKY/WX    TMP DP  RH WIND       PRES   REMARKS
CUT BANK       MOCLDY    37  24  59 W18G26    30.35F WCI  27
GREAT FALLS    CLOUDY    32  20  61 SW12      30.40F WCI  23
MALMSTROM AFB  CLOUDY    31  21  68 SW15      30.41F WCI  20
HELENA         CLOUDY    41  24  51 W13       30.50F
CHOTEAU          N/A     39  25  56 VRB7      30.39F
CONRAD           N/A     22  17  81 S3        30.35F
$$

MTZ011-013-016-021-045-047-050-051-081000-
NORTH CENTRAL MONTANA

CITY           SKY/WX    TMP DP  RH WIND       PRES   REMARKS
HAVRE          CLOUDY    20  15  81 CALM      30.41F
LEWISTOWN      CLOUDY    28  14  55 W5        30.38F
N BAR RANCH      N/A     30  12  47 CALM      30.38S
CHINOOK          N/A     18  12  79 CALM      30.43S
$$

MTZ017>020-022>027-061-062-081000-
NORTHEAST MONTANA

CITY           SKY/WX    TMP DP  RH WIND       PRES   REMARKS
GLASGOW        CLOUDY    20  14  77 NW7       30.41R WCI  11
JORDAN           N/A     23  17  78 W5        30.41R
SIDNEY         CLEAR     25  14  63 NW14      30.36R WCI  13
WOLF POINT     CLOUDY    23  15  71 W9        30.41R WCI  13
PLENTYWOOD       N/A     21  16  79 W10       30.33R WCI  10
POPLAR           N/A     25  14  63 W5        30.40R
SCOBEY           N/A     18   6  59 W3        30.31R
$$

MTZ028>42-056>058-081000-
SOUTHCENTRAL AND SOUTHEAST MONTANA

CITY           SKY/WX    TMP DP  RH WIND       PRES   REMARKS
BAKER          CLEAR     22  13  68 W13       30.33S WCI  10
BILLINGS       PTCLDY    30  13  49 SW12      30.40F WCI  20
LIVINGSTON     CLOUDY    41  18  39 W17       30.46S
MILES CITY     CLOUDY    22  15  75 NW8       30.40R WCI  12
EKALAKA          N/A     18   9  68 W6        30.27R WCI  10
FORSYTH          N/A     25  12  58 W6        30.42R WCI  18
LAUREL           N/A     26   9  48 W3        30.35F
ROUNDUP          N/A     23   9  55 CALM      30.28S
$$

REGIONAL REPORTS...DAKOTAS

CITY           SKY/WX    TMP DP  RH WIND       PRES   REMARKS
WILLISTON      CLEAR     26  17  68 NW21G29   30.32R WCI  12
MINOT          CLEAR     26  16  65 W21       30.20R WCI  12
DICKINSON      CLEAR     18  13  80 W13       30.25S WCI   5
BEACH            N/A     19  14  79 NW14      30.35R WCI   6
CROSBY           N/A     21  19  93 NW15      30.32R WCI   8
TIOGA            N/A     19  19 100 NW15      30.33R WCI   5
WATFORD CITY     N/A     21  18  86 W9        30.32R WCI  11
BISMARCK       CLEAR     28  18  66 NW22G33   30.19F WCI  14
GRAND FORKS    LGT SNOW  14   8  77 N37G47    30.09R BLWGSNOWWCI  -9
FARGO          SNOW      15  11  83 N31G41    30.06R VSB 1/2 WCI  -6
BUFFALO SD       N/A     23  13  65 NW18      30.24R WCI   9
RAPID CITY     CLEAR     28  10  46 NW23G33   30.28F WCI  14
$$

REGIONAL REPORTS...WYOMING/IDAHO/WASHINGTON

CITY           SKY/WX    TMP DP  RH WIND       PRES   REMARKS
GILLETTE       CLOUDY    20   9  62 W14       30.36F WCI   7
SHERIDAN       CLOUDY    30  14  51 W7        30.39F WCI  23
BUFFALO WY     CLOUDY    24  11  57 CALM      30.37F
CODY           CLOUDY    23  14  68 CALM      30.39F
YELLOWSTONE LA   N/A     21  15  78 CALM      30.56R
IDAHO FALLS    CLOUDY    21  19  92 W3        30.66F FOG
SALMON         CLOUDY    19  16  86 CALM      30.69F
BOISE          CLEAR     33  30  88 SE6       30.67S WCI  28
SPOKANE        PTCLDY    32  28  85 NE6       30.61F WCI  26
$$

REGIONAL REPORTS...ALBERTA

CITY           SKY/WX    TMP DP  RH WIND       PRES   REMARKS
EDMONTON       CLOUDY    28  19  69 SE3       30.28F
CALGARY        PTCLDY    25  12  58 S3        30.27F
LETHBRIDGE     CLEAR     39  25  56 W17G24    30.33F WCI  30
MEDICINE HAT   CLEAR     19  16  86 SE2       30.37F
WATERTON GATE    N/A     37  23  56 SW36G52     N/A  WCI  24
CARDSTON         N/A     43  21  42 W15G22      N/A
MILK RIVER       N/A     21  18  86 NW1         N/A
ONEFOUR          N/A     21  14  73 E6          N/A  WCI  14
$$

REGIONAL REPORTS...SASKATCHEWAN

CITY           SKY/WX    TMP DP  RH WIND       PRES   REMARKS
SWIFT CURRENT  PTCLDY    19  14  79 W13       30.35R WCI   7
REGINA         CLEAR     18  16  93 NW10      30.33R WCI   6
SASKATOON      PTCLDY    16  12  86 N8        30.36R WCI   5
CYPRESS HILLS    N/A     23   3  42 W2          N/A
VAL MARIE        N/A     18  12  79 NW5         N/A
ROCKGLEN         N/A     23  14  68 NW14G22     N/A  WCI  11
ASSINIBOIA       N/A     25  19  80 S5          N/A
$$



USA.gov is the U.S. government's official web portal to all federal, state and local government web resources and services.